This is the latest recevied weather packets stored in our database for station/object YD2APR-13. If no packets are shown the sender has not sent any weather packets the latest 10 day(s).
| Time | Temp. | Humidity | Pressure | Rain* | Wind** | Luminosity | Snow |
|---|---|---|---|---|---|---|---|
| 1777372880 | 30.56° C | 69% | 1014 hPa | - | - | - | - |
| 1777372280 | 30° C | 70% | 1014 hPa | - | - | - | - |
| 1777371680 | 30° C | 70% | 1013.8 hPa | - | - | - | - |
| 1777371080 | 30° C | 71% | 1013.6 hPa | - | - | - | - |
| 1777370480 | 30.56° C | 69% | 1013.6 hPa | - | - | - | - |
| 1777369880 | 30.56° C | 68% | 1013.6 hPa | - | - | - | - |
| 1777369280 | 30.56° C | 68% | 1013.6 hPa | - | - | - | - |
| 1777368680 | 30.56° C | 68% | 1013.5 hPa | - | - | - | - |
| 1777368080 | 30.56° C | 66% | 1013.3 hPa | - | - | - | - |
| 1777367480 | 30.56° C | 66% | 1013.2 hPa | - | - | - | - |
| 1777366880 | 31.11° C | 66% | 1012.9 hPa | - | - | - | - |
| 1777366280 | 31.11° C | 65% | 1012.8 hPa | - | - | - | - |
| 1777365680 | 31.11° C | 65% | 1012.9 hPa | - | - | - | - |
| 1777365080 | 31.11° C | 63% | 1012.9 hPa | - | - | - | - |
| 1777364480 | 31.11° C | 65% | 1012.8 hPa | - | - | - | - |
| 1777363880 | 31.11° C | 63% | 1012.5 hPa | - | - | - | - |
| 1777363280 | 31.67° C | 62% | 1012.6 hPa | - | - | - | - |
| 1777362680 | 31.67° C | 62% | 1013 hPa | - | - | - | - |
| 1777362080 | 31.67° C | 61% | 1012.8 hPa | - | - | - | - |
| 1777361480 | 31.67° C | 61% | 1012.7 hPa | - | - | - | - |
| 1777360880 | 32.22° C | 59% | 1012.8 hPa | - | - | - | - |
| 1777360280 | 32.22° C | 59% | 1012.8 hPa | - | - | - | - |
| 1777359679 | 32.22° C | 59% | 1013 hPa | - | - | - | - |
| 1777359080 | 32.22° C | 60% | 1013.2 hPa | - | - | - | - |
| 1777358479 | 32.22° C | 60% | 1013.2 hPa | - | - | - | - |
* Rain since midnight (hover to see other rain measurements)
** Current wind speed in m/s (hover to see current wind gust speed)